Theta_e
296 296 296 295 295 295 295 297 298 298 298 299 300 301 303 304 306 307 306 303 302 306 305 306 307 306 306 304 300 302 303 303 306 307 311 312 310 310 309 313 308 314 313 309 310 311 313 308 305 305 303 300 299 299
295 296 295 295 294 295 295 296 297 297 298 297 298 300 303 304 305 306 304 302 300 300 301 304 305 305 306 305 301 300 302 304 303 306 310 309 310 311 309 314 314 314 310 311 307 309 307 306 304 302 299 298 299 298
295 295 295 295 294 294 294 295 296 296 297 297 296 299 301 302 305 306 305 303 301 301 302 301 303 306 306 305 305 301 303 303 302 305 307 308 308 309 313 314 312 312 303 306 306 306 306 306 303 300 299 298 298 297
295 295 295 295 294 293 294 294 295 295 296 296 296 299 300 303 307 306 304 302 299 299 302 302 305 305 306 305 305 305 306 304 302 304 306 307 307 308 312 312 312 310 305 307 307 307 305 304 302 300 299 300 299 300
294 294 295 295 295 293 293 293 294 295 295 296 296 299 300 305 306 304 303 302 302 299 304 303 302 305 304 304 303 305 306 301 302 306 306 307 307 309 311 311 313 306 307 307 307 306 304 302 302 301 301 300 300 300
294 294 295 295 294 293 294 294 295 296 296 296 296 298 302 305 305 303 301 301 300 298 300 305 300 300 302 303 303 306 305 302 302 306 308 308 308 311 314 313 308 307 307 306 305 305 305 303 302 301 300 300 300 300
294 294 295 294 294 295 295 295 296 296 296 295 297 301 303 305 304 300 303 302 301 300 303 304 300 301 306 307 305 306 306 304 305 308 308 310 310 311 314 313 304 307 308 306 305 306 307 304 301 300 300 300 299 299
295 295 294 294 294 294 295 295 295 295 295 299 299 301 302 302 301 300 301 301 301 301 302 303 303 301 305 306 309 306 308 309 309 310 311 314 314 313 315 308 307 308 306 306 306 306 306 302 301 300 299 300 299 299
295 294 294 294 294 294 294 294 295 295 295 298 299 301 299 299 299 299 302 302 301 301 304 305 304 302 304 310 310 315 314 315 311 312 313 314 316 316 311 309 308 307 307 307 307 307 306 305 301 301 300 300 300 300
293 293 293 294 294 295 295 295 295 294 297 296 299 298 298 299 301 301 301 301 300 300 301 303 302 303 302 303 305 315 315 315 318 314 313 317 315 309 308 307 306 306 307 306 307 309 307 305 302 301 300 300 300 300
293 293 294 294 295 295 295 295 295 294 297 299 300 299 300 301 302 303 304 304 303 302 302 302 302 302 300 303 304 306 313 312 315 312 316 313 310 309 306 306 305 306 306 305 305 306 305 303 302 301 300 300 299 299
293 293 294 294 294 295 295 294 294 295 295 296 296 298 299 300 301 303 306 305 305 304 303 302 302 301 301 302 304 305 313 314 317 313 317 313 312 308 308 306 306 306 305 304 305 307 304 303 302 301 300 299 299 299
293 293 293 294 294 295 295 294 294 294 295 295 297 299 298 298 302 302 304 308 309 306 306 305 310 306 304 305 306 310 314 316 313 315 316 312 308 309 307 306 307 307 306 305 307 307 305 303 302 302 300 299 299 299
293 293 293 294 294 294 294 293 293 294 295 295 299 297 298 300 302 301 303 304 305 304 305 307 310 313 311 311 314 316 314 315 317 316 317 309 307 309 308 307 308 307 305 305 307 306 306 304 303 302 301 301 300 300
293 293 293 293 293 293 294 293 294 295 295 296 298 299 298 299 299 301 301 300 300 305 306 307 309 310 314 315 314 315 317 318 318 316 312 306 306 307 305 308 307 307 306 306 306 302 304 306 304 303 302 301 301 301
293 293 293 292 292 294 294 294 294 295 295 297 296 298 298 298 298 298 298 299 300 302 302 309 312 314 315 315 316 317 317 317 314 314 308 305 305 306 307 308 308 308 308 305 303 302 303 303 305 305 304 303 303 303
292 293 292 292 293 294 294 295 295 294 296 298 295 295 295 295 296 296 296 296 298 301 303 304 312 313 313 317 317 317 318 315 311 308 306 304 303 304 308 309 309 309 309 304 303 303 302 302 302 303 303 304 304 303
293 292 293 293 294 295 295 296 295 295 297 296 296 296 296 295 295 295 295 296 298 302 303 304 307 311 312 316 316 317 313 309 308 307 305 304 306 308 309 309 309 308 308 304 303 303 302 302 301 300 302 302 302 302
293 293 293 294 295 295 294 294 293 297 297 297 297 296 296 296 296 296 297 298 300 299 298 304 306 310 314 314 314 314 312 309 308 306 304 306 308 308 308 308 308 307 306 304 304 303 303 303 303 302 302 302 301 301
293 294 294 294 295 294 295 297 293 298 299 299 298 298 297 297 297 298 299 301 300 299 302 307 308 313 313 313 313 312 311 308 307 306 304 306 308 307 306 307 307 307 305 304 305 304 303 302 303 303 302 302 301 300
295 296 296 296 297 295 296 300 299 298 298 300 301 300 299 300 299 300 302 303 303 304 306 308 310 310 311 313 313 311 307 308 306 306 306 304 303 304 304 306 305 306 305 305 303 303 303 302 302 302 302 302 302 301
295 296 295 295 297 297 297 298 300 301 302 303 303 303 302 303 302 303 305 303 304 305 307 308 310 312 312 314 314 312 310 308 307 306 305 304 301 301 301 304 305 304 304 304 305 305 303 303 302 302 302 302 301 301
295 295 297 297 299 300 300 301 302 301 303 304 306 307 306 306 307 305 307 305 305 308 308 309 313 312 311 314 314 312 310 308 305 305 304 303 304 304 303 304 304 305 304 305 305 305 305 304 304 303 301 300 301 300
295 297 300 299 298 301 301 304 303 304 305 304 307 309 308 310 307 308 309 307 306 308 308 311 312 311 311 311 313 312 309 308 306 306 306 306 305 306 305 306 306 306 305 305 305 304 304 303 303 302 301 301 300 300
298 296 298 298 300 302 303 305 306 307 310 308 310 310 310 309 310 310 310 308 307 307 308 308 309 312 312 311 311 313 312 309 309 308 307 307 307 307 307 307 307 307 306 306 304 303 303 303 304 303 301 301 301 302
297 298 296 302 301 302 304 309 307 308 309 308 310 311 311 311 311 311 309 307 309 308 309 310 309 309 308 308 309 310 312 311 311 310 310 309 308 308 308 308 307 307 307 307 307 304 303 303 303 303 303 302 302 302
298 301 301 300 302 305 306 307 306 307 309 311 311 311 311 312 313 312 310 309 307 309 311 311 311 308 306 308 312 313 313 312 311 311 310 310 310 310 309 310 309 309 307 308 306 305 304 303 303 304 303 304 304 304
302 303 305 304 303 303 305 306 308 309 308 310 312 313 313 315 315 312 313 312 311 312 312 311 311 311 311 312 312 312 311 311 311 311 311 311 311 312 311 311 311 309 307 308 309 308 306 304 303 304 305 304 305 305
301 302 303 304 305 306 307 309 311 312 312 312 313 312 311 312 312 311 311 310 311 310 309 308 309 310 310 310 311 310 310 310 309 309 308 306 307 309 310 310 310 311 309 310 311 309 307 309 308 307 305 305 305 305
302 302 304 307 309 310 311 311 311 310 308 308 307 307 310 310 310 310 310 311 310 308 309 309 309 308 307 308 308 309 309 309 309 308 308 307 307 310 310 310 310 310 310 310 310 310 309 309 308 308 307 308 307 307
303 303 306 308 310 311 310 306 305 305 305 304 304 307 310 309 308 310 311 310 309 309 308 307 308 309 309 309 309 308 306 309 309 309 309 309 309 310 310 309 308 309 309 309 308 308 308 308 308 308 308 308 308 309
304 306 309 310 311 311 309 306 305 306 306 306 306 307 308 308 308 308 310 310 309 309 308 308 307 307 309 309 308 308 308 309 309 309 309 309 309 309 309 309 309 308 308 308 308 308 308 308 308 308 308 308 308 307
303 303 305 309 311 310 310 308 308 307 306 307 306 306 306 309 309 307 309 310 309 309 307 307 307 307 308 309 308 308 307 306 306 306 306 307 307 306 306 306 306 306 306 306 308 308 308 308 308 307 307 306 305 303
Wind_Speed
10 11 12 15 17 18 18 18 19 20 20 22 22 21 20 16 19 16 8 6 4 3 7 10 7 6 3 1 3 5 5 4 3 4 2 2 2 4 4 5 3 3 3 2 2 4 5 15 7 7 7 15 19 21
11 11 12 15 17 17 18 18 19 20 21 22 22 22 21 20 14 17 8 4 5 6 8 18 29 33 26 30 4 4 4 4 4 2 2 2 3 2 3 4 2 3 3 2 3 4 10 14 12 10 14 17 17 17
12 12 13 14 17 17 18 18 19 20 21 23 22 22 23 23 15 17 16 12 7 3 9 8 8 23 21 23 32 4 2 5 4 3 2 2 5 2 3 3 4 2 3 3 3 4 6 14 6 9 13 15 15 15
14 14 14 16 18 18 17 19 19 20 21 24 23 23 24 22 15 16 16 6 3 5 3 7 13 19 17 26 15 32 6 5 6 2 2 2 3 5 3 5 5 3 2 3 5 9 12 6 8 13 16 15 16 17
16 15 15 17 19 20 19 19 19 21 22 24 23 24 22 16 5 11 13 16 13 4 4 7 32 21 7 9 23 29 17 5 3 3 3 4 3 3 3 3 3 3 4 2 3 9 6 9 14 15 14 14 15 15
16 16 17 17 21 21 19 19 20 22 23 24 22 25 14 9 6 2 2 4 6 8 3 4 8 7 18 7 17 18 17 3 3 3 3 3 4 3 3 3 4 5 6 7 4 5 8 5 11 12 10 14 13 13
17 17 17 21 21 19 19 18 19 21 24 24 21 12 6 7 7 3 3 1 1 6 2 5 5 5 8 3 4 3 7 3 3 3 3 3 3 5 2 3 4 6 5 8 9 6 5 3 5 9 10 11 14 15
20 20 21 19 18 17 17 17 18 20 22 21 11 8 7 8 9 8 13 10 10 4 2 3 5 5 4 2 3 4 4 2 3 2 2 3 2 3 4 6 5 6 6 7 8 4 2 4 5 6 10 10 11 12
19 18 17 18 17 16 15 15 16 19 20 13 11 10 6 4 3 3 11 5 13 3 3 4 2 4 5 1 2 2 3 4 4 3 4 3 3 5 6 5 7 6 5 7 6 5 5 3 3 6 7 9 9 11
18 18 18 16 15 15 15 14 15 16 21 8 6 2 3 5 7 8 3 2 1 2 3 4 2 5 4 4 4 2 3 3 4 6 3 4 4 1 2 6 6 6 7 2 2 4 6 3 3 6 6 8 9 9
16 16 16 16 16 15 14 13 13 14 8 3 3 2 8 12 3 3 2 3 3 4 3 4 8 7 3 3 4 3 3 2 2 4 4 3 3 4 6 5 5 5 4 5 3 5 4 6 4 7 6 8 10 11
17 17 16 17 16 16 12 12 11 9 6 10 12 13 6 2 3 4 3 3 5 5 4 4 5 6 4 4 3 3 3 1 5 2 2 3 2 7 7 5 5 4 3 5 5 2 13 9 8 9 8 10 11 13
17 17 16 16 17 16 13 12 11 11 11 6 3 3 2 3 4 5 6 4 4 4 3 1 3 3 3 2 2 3 4 4 1 1 3 3 5 6 6 4 3 1 3 5 9 19 20 15 12 13 13 12 13 14
17 17 17 17 16 15 13 13 12 8 5 2 3 4 5 6 6 6 5 3 4 5 11 7 4 2 3 3 4 3 4 2 3 3 5 3 6 8 6 3 2 2 2 4 6 18 18 18 14 14 15 15 16 15
18 18 18 18 17 17 17 16 15 10 6 4 4 6 8 7 5 3 4 4 5 5 7 9 6 3 3 5 3 3 3 4 5 3 2 4 6 7 6 5 4 1 4 4 2 9 16 20 19 16 16 14 14 14
18 19 21 20 20 18 18 17 16 9 5 4 6 6 5 3 6 6 6 6 2 6 4 2 4 4 5 3 4 6 4 3 2 2 3 6 6 6 5 4 3 1 6 2 13 15 16 17 18 19 17 16 15 17
16 11 13 13 11 12 13 14 9 6 5 6 6 4 6 7 8 7 5 8 3 3 2 3 5 5 3 4 4 2 2 2 5 5 4 6 7 7 4 4 4 3 5 12 16 18 17 16 22 21 13 17 19 17
23 21 18 16 15 14 13 9 5 5 8 8 7 9 9 9 10 10 10 9 5 3 2 3 6 4 3 6 0 1 3 2 3 5 4 5 6 7 7 5 2 8 9 15 19 18 19 15 13 11 18 21 23 22
22 22 21 19 17 7 5 7 7 4 8 4 8 10 12 11 12 15 9 7 7 6 2 2 6 4 5 4 3 3 4 3 4 3 4 7 11 10 10 10 3 6 7 14 17 15 18 19 18 20 21 21 18 23
25 28 27 25 21 6 4 4 9 4 5 6 9 12 12 11 11 10 7 6 5 4 4 6 5 6 3 3 3 6 5 8 7 6 4 4 11 16 10 9 3 4 9 15 18 20 18 17 21 19 18 18 17 19
23 24 23 27 16 16 4 3 5 4 4 3 3 7 6 8 11 9 7 5 2 3 4 8 8 9 9 2 10 5 5 10 7 7 8 5 9 14 12 12 9 14 11 9 8 12 18 16 19 18 17 16 15 19
7 8 4 5 4 7 5 9 4 3 3 3 2 3 4 5 6 7 4 5 4 9 7 8 9 8 3 4 5 11 12 15 14 15 16 18 5 5 6 15 7 4 6 9 14 12 14 16 17 15 18 19 18 17
11 7 3 7 4 4 5 8 5 3 4 3 2 3 3 3 4 5 4 6 6 7 11 8 6 10 5 8 11 15 20 17 6 12 14 14 17 16 15 14 11 10 5 5 8 11 19 19 17 18 20 18 20 27
6 3 2 4 5 4 3 4 3 3 3 2 3 2 3 4 3 3 3 3 3 4 5 4 5 4 7 8 7 7 14 18 15 16 20 18 9 13 18 13 11 10 10 13 9 9 17 17 19 22 25 22 25 24
4 4 3 6 4 4 3 3 4 3 4 6 3 2 2 1 1 2 2 2 2 2 3 4 5 5 6 5 7 9 11 23 12 8 16 23 15 15 13 17 12 11 10 4 10 18 20 19 22 25 24 24 24 21
4 5 7 4 3 3 3 3 2 3 4 2 1 3 2 3 3 1 0 2 3 4 4 6 5 4 4 6 6 4 13 27 23 9 15 22 21 16 9 8 6 14 21 21 16 16 18 18 18 19 23 21 20 20
3 5 4 4 3 2 3 4 6 4 3 2 3 2 1 1 3 3 3 3 3 5 16 19 16 6 4 7 14 16 17 26 24 19 22 20 25 20 20 15 11 20 14 14 20 21 18 19 17 15 19 19 20 18
5 4 4 3 4 5 4 3 3 2 1 1 3 2 2 1 1 3 3 12 8 22 21 19 18 17 25 24 24 23 22 25 23 20 19 15 16 16 14 12 9 14 20 19 19 17 19 14 15 14 17 17 14 16
4 4 3 9 7 4 5 3 2 2 2 3 2 3 2 2 3 2 2 6 14 25 18 15 20 26 24 23 23 29 28 25 19 12 11 5 5 13 19 17 15 13 17 14 10 12 19 19 14 15 19 21 20 17
4 4 3 3 3 3 3 3 3 2 3 3 3 2 2 3 8 7 9 10 11 12 15 20 23 23 16 17 15 17 18 23 24 20 8 6 9 17 16 18 18 18 18 18 17 19 19 18 19 18 17 14 12 11
2 2 1 3 2 1 2 2 3 5 4 5 4 3 3 2 8 15 12 8 11 20 21 17 18 23 21 16 15 12 9 15 20 20 23 23 20 17 18 14 15 14 14 16 16 15 12 9 9 11 11 11 10 10
2 4 5 1 1 3 4 3 3 4 5 4 4 3 3 3 4 4 9 7 16 16 17 21 18 17 20 23 25 26 27 28 28 26 23 22 21 18 18 18 17 14 11 9 9 14 17 17 15 14 11 9 8 9
1 2 3 4 1 3 3 4 2 2 3 3 3 2 2 2 2 2 6 10 14 15 18 25 26 27 28 29 28 28 28 27 27 26 26 26 24 22 20 18 15 13 12 13 13 14 14 14 14 15 16 15 14 12
Wind_Direction
316 323 329 333 335 341 334 337 340 338 342 338 336 337 337 334 337 281 270 238 234 251 282 257 264 208 270 173 179 276 4 356 43 47 353 337 284 289 318 284 260 282 317 291 299 282 295 3 340 336 300 302 302 304
308 313 321 329 332 329 335 334 333 336 338 339 333 329 330 331 317 269 272 237 221 231 256 289 275 267 256 254 176 214 208 190 171 117 222 277 270 285 301 287 225 281 215 277 199 247 289 320 299 315 306 298 303 305
301 305 307 322 329 327 330 329 330 334 335 334 333 328 328 322 313 267 256 284 300 268 277 263 270 294 299 254 218 152 245 164 187 188 153 234 257 242 259 256 276 242 153 238 305 238 276 309 314 311 308 307 307 304
292 296 296 312 324 324 323 326 328 331 333 332 332 330 327 324 305 237 235 260 277 285 276 281 307 295 272 286 223 211 150 122 101 112 162 198 243 214 252 251 258 244 183 261 252 282 306 255 332 325 320 327 331 333
288 291 296 301 313 319 317 321 326 329 329 330 331 330 332 327 310 224 257 272 264 236 285 296 302 292 310 305 214 198 166 130 135 161 194 221 236 239 236 245 247 178 221 256 273 291 292 291 320 325 329 341 341 345
284 286 292 295 306 312 313 316 322 325 327 329 328 329 332 314 260 276 302 44 217 213 290 296 293 288 292 278 194 184 173 127 148 172 198 220 241 212 261 245 232 204 197 200 250 261 289 288 315 329 337 343 350 352
279 285 286 295 302 305 311 313 320 324 327 326 328 345 317 272 263 225 271 187 306 192 254 294 287 273 290 160 118 108 150 164 152 196 224 229 234 201 244 238 232 195 206 231 248 282 290 38 324 342 351 353 2 12
274 280 290 294 299 302 306 310 319 323 329 335 333 322 286 271 280 279 295 311 236 262 302 272 273 316 244 192 175 154 153 157 191 215 223 214 212 212 250 229 198 182 199 263 274 225 267 126 336 7 7 8 24 26
275 281 285 291 294 297 302 307 315 320 324 324 316 298 286 250 241 251 320 284 197 219 258 234 247 279 327 345 207 166 140 185 163 218 228 187 189 225 225 172 171 182 203 246 312 297 150 131 356 42 21 23 32 33
275 278 283 285 288 294 298 301 311 320 332 279 280 280 272 230 320 296 254 153 174 246 234 253 269 257 8 353 300 204 183 210 208 220 201 214 241 335 108 146 159 181 222 218 334 106 142 88 34 77 48 44 44 47
276 277 278 277 282 285 285 292 305 316 308 259 255 249 296 311 260 225 231 200 196 247 222 242 231 236 275 203 233 248 260 209 234 259 175 253 264 191 154 151 179 199 241 258 222 249 242 130 101 109 89 71 64 50
272 273 273 278 279 278 272 287 294 293 277 313 305 284 277 273 231 248 228 204 221 248 212 205 219 201 253 202 187 268 221 217 246 181 214 267 230 146 156 179 206 204 263 283 281 89 126 137 112 116 103 92 78 66
271 272 272 275 275 272 266 278 279 270 291 304 248 256 228 242 234 226 213 202 225 214 226 18 322 226 258 200 216 248 225 232 68 213 232 233 150 150 145 193 204 229 275 298 326 135 143 135 115 109 108 107 97 82
270 271 273 269 275 275 262 267 263 275 222 237 236 241 222 208 231 211 224 253 261 327 333 329 301 153 299 211 214 234 237 135 210 216 234 170 156 144 154 159 182 251 287 327 335 148 142 149 142 128 125 125 112 100
269 268 269 268 268 266 259 257 253 241 213 217 238 222 226 234 275 268 247 277 322 334 341 327 301 182 171 291 245 259 245 226 205 225 231 161 150 139 149 167 207 302 293 302 205 115 133 148 154 157 159 153 136 122
267 272 265 267 263 258 253 253 251 224 213 214 235 243 261 292 259 272 283 293 342 352 329 299 266 262 218 212 246 201 247 231 221 190 122 129 140 142 155 156 131 288 303 116 131 122 115 124 153 159 156 151 152 139
265 250 264 268 256 257 254 245 188 208 222 215 230 226 235 274 267 268 283 284 341 33 354 325 270 232 299 242 223 264 310 199 143 126 136 149 152 153 139 135 124 348 8 136 120 126 129 127 121 140 162 183 171 159
253 257 254 253 256 267 256 217 213 232 228 225 238 228 219 233 245 256 251 266 262 196 148 228 302 246 210 295 135 90 31 22 86 125 129 135 135 123 129 101 352 29 22 127 128 131 133 135 120 119 125 141 147 151
254 252 257 254 251 219 213 202 203 245 223 218 235 240 230 234 241 243 246 230 197 116 95 244 254 240 218 253 160 192 128 145 133 115 123 127 117 121 121 106 44 15 116 122 129 132 139 134 133 133 127 132 132 142
265 266 261 256 243 206 223 220 199 241 239 225 230 239 227 228 234 225 216 199 161 144 215 218 218 274 262 280 212 163 137 135 130 120 121 114 135 129 124 116 157 210 162 127 123 138 139 135 143 140 137 133 123 132
268 266 260 244 230 207 231 244 216 232 249 253 253 215 223 217 218 218 207 158 171 214 237 227 246 253 266 167 113 108 138 150 153 155 157 149 151 149 147 156 113 164 131 130 126 134 147 159 164 161 155 159 154 139
213 173 141 146 187 177 229 225 250 276 245 246 209 211 232 212 216 213 130 194 210 227 218 230 240 231 180 162 153 141 158 142 143 133 140 136 137 142 144 170 137 102 131 142 167 177 176 176 177 174 173 173 167 162
171 161 204 196 236 229 250 178 231 227 237 249 189 234 217 209 195 152 202 190 221 208 211 217 198 178 151 152 142 157 147 134 131 135 135 138 149 160 161 171 166 177 180 192 158 159 187 200 192 189 168 163 161 156
166 223 220 206 213 253 220 213 202 240 263 250 240 240 225 202 185 191 247 195 200 162 166 131 124 100 84 90 106 116 140 140 125 134 138 129 125 138 160 160 149 152 195 221 194 165 159 141 143 155 163 166 161 160
184 237 197 235 239 247 244 246 208 203 245 217 211 290 259 166 162 248 211 221 119 135 109 104 96 104 121 116 130 188 161 148 141 137 161 150 142 142 142 123 105 99 104 106 146 154 158 148 146 161 162 165 166 164
213 221 188 227 230 214 238 276 282 279 270 290 90 195 238 200 215 257 80 186 146 151 151 132 133 127 124 142 152 151 153 163 158 135 159 165 165 160 156 161 185 219 213 227 213 176 168 166 161 162 172 178 184 184
233 237 218 225 257 330 304 266 246 269 280 301 339 286 282 272 26 353 321 6 130 151 157 151 150 130 129 133 150 142 147 164 167 173 179 185 187 185 187 188 190 203 179 167 195 192 188 183 182 185 189 195 195 190
222 233 234 204 210 215 237 244 266 235 269 226 267 250 75 87 35 328 347 358 56 136 134 139 147 134 128 129 132 132 126 126 127 132 148 163 187 195 199 179 157 168 175 177 188 209 199 189 196 199 202 180 162 192
238 236 208 258 255 233 212 222 219 251 261 211 189 51 49 44 350 337 353 11 99 109 107 111 105 106 119 121 130 136 134 127 119 111 109 106 92 115 128 128 126 140 161 163 142 156 176 172 199 183 174 155 150 150
236 182 225 287 319 45 4 23 29 328 347 18 85 63 57 26 6 79 74 64 69 104 120 118 113 106 103 102 95 100 132 144 142 136 132 134 146 138 129 133 133 130 134 133 131 135 135 136 136 146 154 158 166 173
269 137 208 62 291 214 151 112 34 35 34 29 19 61 46 20 39 43 63 56 96 102 102 102 105 116 113 107 106 101 68 129 139 132 129 134 131 133 136 125 135 136 136 134 133 133 129 143 150 148 157 161 165 172
184 168 145 215 336 147 155 61 59 36 10 23 14 7 35 37 43 10 8 93 84 77 93 98 101 106 120 112 104 108 115 117 121 127 127 124 116 118 119 118 125 129 132 138 140 131 127 124 119 112 127 149 153 156
182 211 217 106 105 215 159 106 95 84 39 30 20 16 24 54 104 280 73 104 90 115 112 117 127 131 132 129 123 117 112 105 105 113 117 118 122 120 115 114 115 119 124 116 124 137 125 126 129 131 130 124 119 119